Showing default

LYNK TOWER 4, 55034

Orbit data source: Space-Track

LYNK TOWER 4, 55034 is a payload satellite owned by Lynk (US) in SSO that was launched on Tue, 03 Jan 2023 UTC via an FALCON 9 launch vehicle from the Air Force Eastern Test Range (AFETR). Payloads include a variety of satellites, spacecraft, and rockets equipped with specific instruments for various scientific and technological missions. These include communications satellites like Starlink; space stations such as the ISS; scientific satellites like the Hubble; Earth observation satellites from companies like Planet Labs, Umbra, and HawkEye 360; GPS; miniature CubeSats for education and research; and military/defense satellites.

Loading next visibility...
LYNK TOWER 4 details
Identifier
55034, 2023-001AB
Orbit
SSO
Last TLE update6 hours ago
Origin
Flag of USLynk (US)
ManufacturerLynk
MissionOperational Commercial Communications
Bus & MotorLYNK SHANNON, Unknown motor
Mass~80 kg wet, ~80 kg dry
Launch date (UTC)
2023-01-03 (2 years ago)
Launch vehicle
FALCON 9
Launch site
Air Force Eastern Test Range (AFETR)
Object type
Payload
Rocket body
Debris
Shape & HBRBox, 1 m
Radar Cross Section0.650 m², Medium (>0.1 m² and < 1m²)

Expand to show TLE details & history

TLE from 6 hours ago
0 LYNK TOWER 4
1 55034U 23001AB  25036.11639829  .00008061  00000-0  34005-3 0  9998
2 55034  97.3942  95.8467 0011635  85.1771 275.0794 15.23497184115888
Epoch: 2025-02-05T02:47Z
Definitive object data (Epoch: 2025-02-05T02:47:36.812Z)
Latitude-0.00004°
Longitude-81.56863°
Altitude497.698 km
Speed7.616 km/s
True Right ascension06h 23m 23s
True Declination0° 00' 00"
Sunlit
Object was in full shadow at TLE epoch
Visualization TLE readout
Latitude-63.5719°
Longitude-66.27066°
Altitude526.47 km
Speed7.595 km/s
Apparent Right ascension01h 27m 23s
Apparent Declination-69° 23' 37"
Sunlit
Object is in daylight
Visualization observer readout
Local Sidereal Time10:51:32
Azimuth202.2° SSW
Elevation-54.145°
Doppler factor1
Orbital elements
Apogee altitude500.256 km
Perigee altitude484.269 km
Semi-major axis6,870.399 km
Eccentricity0.0011635
Inclination97.3942°
RAAN95.8467°
Arg. of periapsis85.1771°
True anomaly274.94658°
Mean anomaly275.0794°
Eccentric anomaly275.01299°
Mean motion3.81127 °/min
BSTAR0.00034005
Orbital period94.46 mins
Loading maneuver chart data...
Loading historical data...
Loading historical data...
Loading historical data...
Loading historical data...
Loading historical data...
Loading historical data...
Loading historical data...

LYNK TOWER 4 Visibility forecast

Observer location: undefined°, undefined

Span
Click to sort rows by Start time (UTC) header in descending order
Start Az.
Max El. time (UTC)
Max El. Az.
Max El.
End time (UTC)
End Az.
5 mins2025-02-05 15:58:58.662Z50.124° ENE2025-02-05 16:00:58.662Z89.469° E20.214°2025-02-05 16:03:58.662Z146.851° SSE
5 mins2025-02-06 04:08:58.662Z186.357° SSW2025-02-06 04:10:58.662Z235.894° WSW38.768°2025-02-06 04:13:58.662Z335.627° NNW
|